AQUA

Last updated on Wed Sep 17 2025 00:02:15 GMT+0000 (Coordinated Universal Time)

1 27424U 02022A 25259.55028502 .00000914 00000+0 19429-3 0 9996 2 27424 98.3880 219.1018 0002024 91.6357 359.6962 14.61481540243292
UTC large
Height (km)
Speed (km/s)
/
Latitude / Longitude
Inclination (degrees)
Orbital Period (minutes)
Azimuth
Elevation
Range (km)
Doppler Factor

Next 0 passes for location: London (51.5072 / 0.1276)

Sorry there are no passes over London.